Regional Weather Roundup
Issued by NWS Portland, ME

Current Version | Previous Version | Text Only | Print | Product List | Glossary Off
Versions: 1 2 3 4 5 6 7 8 9 10 11 12 13 14 15 16 17 18 19 20 21 22 23 24 25 26 27 28 29 30 31 32 33 34 35 36 37 38 39 40 41 42 43 44 45 46 47 48 49 50
640 ASUS41 KGYX 231505 RWRGYX WEATHER ROUNDUP FOR MAINE AND NEW HAMPSHIRE NATIONAL WEATHER SERVICE GRAY ME 1000 AM EST WED JAN 23 2019 MEZ002-005-006-010-012-015-018-020-021-024-026-027-029-231600- MAINE CITY SKY/WX TMP DP RH WIND PRES REMARKS PORTLAND CLOUDY 30 14 51 S13G23 30.27F WCI 20 SANFORD CLOUDY 26 13 57 SW8 30.27F BAR HARBOR CLOUDY 24 16 71 SE3 30.30F WISCASSET CLOUDY 32 19 58 SW13G25 30.28F ROCKLAND FAIR 33 20 58 SW15G23 30.29F FRYEBURG CLOUDY 19 2 47 E3 30.21F LEWISTONAUBURN CLOUDY 24 9 52 S10 30.24F WCI 14 AUGUSTA CLOUDY 21 9 59 VRB5 30.23F WATERVILLE PTSUNNY 19 6 57 MISG 30.20F BANGOR LGT SNOW 17 7 64 SE5 30.24F GREENVILLE N/A 10 -4 53 SE9 30.09F MILLINOCKET LGT SNOW 8 0 69 CALM 30.25F VSB 3/4 HOULTON LGT SNOW 11 -4 51 S6 30.22F PRESQUE ISLE FLURRIES 7 -2 66 SE10 30.20F WCI -8 FRENCHVILLE LGT SNOW 5 -2 72 SE9 30.13F VSB 3/4 CARIBOU LGT SNOW 8 -1 66 S9 30.18F $$ NHZ002-005-008-009-011-012-014-231600- NEW HAMPSHIRE CITY SKY/WX TMP DP RH WIND PRES REMARKS PORTSMOUTH CLOUDY 27 14 58 S9 30.27F ROCHESTER CLOUDY 23 11 60 VRB6 30.26F NASHUA CLOUDY 27 16 63 SE3 30.27F MANCHESTER LGTSLEET 27 13 55 S10 30.24F WCI 17 CONCORD CLOUDY 24 10 55 SE8 30.24F LACONIA FAIR 21 6 52 E3 30.22F PLYMOUTH CLOUDY 18 4 54 CALM 30.21F BERLIN CLOUDY 8 3 80 SW3 30.12F WHITEFIELD CLOUDY 12 7 80 N5 30.11F JAFFREY CLOUDY 27 13 55 S7 30.20F KEENE CLOUDY 27 11 51 S8 30.22F LEBANON CLOUDY 24 8 50 S7 30.17F MT WASHINGTON BLWGSNOW 21 21 100 W66G71 N/A VSB 0 WCI -3 $$ VTZ005-007-008-231600- VERMONT CITY SKY/WX TMP DP RH WIND PRES REMARKS ST JOHNSBURY N/A 13 7 77 MISG 30.12 MONTPELIER CLOUDY 20 8 60 S13 30.11F WCI 7 BURLINGTON CLOUDY 26 9 48 S20G30 30.08F WCI 12 $$ MAZ007-012-024-CTZ003-RIZ002-NYZ038-NYZ072-231600- SOUTHERN NEW ENGLAND AND NY CITY SKY/WX TMP DP RH WIND PRES REMARKS BOSTON CLOUDY 34 23 64 SW17 30.32F WORCESTER CLOUDY 27 17 66 SW15 30.24F WCI 15 NANTUCKET FAIR 41 33 73 S13 30.40F PROVIDENCE PTSUNNY 32 25 75 S6 30.34F HARTFORD CLOUDY 27 20 75 S8 30.29F ALBANY CLOUDY 28 11 48 S14G24 30.20F WCI 17 NEW YORK CITY CLOUDY 35 16 45 S9 30.33F $$ ANZ081-ANZ082-ANZ150-NHZ014-MEZ023>029-231600- COASTAL MARINE OBSERVATIONS STATION/POSITION TIME TEMP WIND PRES WAVE AIR SEA DIR/SP/G HT/PER (UTC) (F) (DEG/KT/KT) (MB) (FT/S) MOUNT DESERT ROC 1400 33 190/ 22/ 24 1027.5F MATINICUS ROCK 1400 33 210/ 25/ 28 1026.5F ISLE OF SHOALS 1400 31 210/ 28/ 31 1026.2F JEFFREYS LEDGE 1438 41 N/A 5/ 5 CASHES LEDGE BUO 1450 36 40 1027.3F 5/ 5 $$ .............KEY.............. WCI - WIND CHILL TC - TEMPERATURE IN CELSIUS VSB - VISIBILITY IN MILES HX - HEAT INDEX FAIR- INDICATES FEW OR NO CLOUDS BELOW 12,000 FT, WITH NO SIGNIFICANT WEATHER AND/OR OBSTRUCTIONS TO VISIBILITY.

USA.gov is the U.S. government's official web portal to all federal, state and local government web resources and services.